Time,TemperatureF,DewpointF,PressureIn,WindDirection,WindDirectionDegrees,WindSpeedMPH,WindSpeedGustMPH,Humidity,HourlyPrecipIn,Conditions,Clouds,dailyrainin,SoftwareType,DateUTC
2013-01-23 00:00:00,20.2,2.3,30.34,NW,321,0.0,4.0,45,0.00,,,0.00,HR-IXPWINDi_r2_v1.2.,2013-01-23 05:00:00,
2013-01-23 00:05:00,20.2,2.3,30.34,NW,323,1.0,4.0,45,0.00,,,0.00,HR-IXPWINDi_r2_v1.2.,2013-01-23 05:05:00,
2013-01-23 00:10:00,20.0,3.1,30.34,NW,323,0.0,4.0,47,0.00,,,0.00,HR-IXPWINDi_r2_v1.2.,2013-01-23 05:10:00,
2013-01-23 00:15:00,19.9,3.0,30.34,North,355,0.0,4.0,47,0.00,,,0.00,HR-IXPWINDi_r2_v1.2.,2013-01-23 05:15:00,
2013-01-23 00:21:00,19.8,2.4,30.34,SSW,200,0.0,4.0,46,0.00,,,0.00,HR-IXPWINDi_r2_v1.2.,2013-01-23 05:21:00,
2013-01-23 00:26:00,19.7,2.8,30.34,North,355,0.0,4.0,47,0.00,,,0.00,HR-IXPWINDi_r2_v1.2.,2013-01-23 05:26:00,
2013-01-23 00:31:00,19.8,2.4,30.34,NNE,28,1.0,4.0,46,0.00,,,0.00,HR-IXPWINDi_r2_v1.2.,2013-01-23 05:31:00,
2013-01-23 00:36:00,19.9,1.6,30.34,NNE,33,2.0,4.0,44,0.00,,,0.00,HR-IXPWINDi_r2_v1.2.,2013-01-23 05:36:00,
2013-01-23 00:41:00,20.0,2.2,30.34,NNE,33,0.0,4.0,45,0.00,,,0.00,HR-IXPWINDi_r2_v1.2.,2013-01-23 05:41:00,
2013-01-23 00:47:00,20.0,2.2,30.34,East,96,0.0,2.0,45,0.00,,,0.00,HR-IXPWINDi_r2_v1.2.,2013-01-23 05:47:00,
2013-01-23 00:52:00,20.0,2.2,30.34,SE,128,1.0,3.0,45,0.00,,,0.00,HR-IXPWINDi_r2_v1.2.,2013-01-23 05:52:00,
2013-01-23 00:57:00,20.1,1.8,30.34,ENE,71,0.0,3.0,44,0.00,,,0.00,HR-IXPWINDi_r2_v1.2.,2013-01-23 05:57:00,
2013-01-23 01:02:00,20.3,1.5,30.34,North,5,1.0,2.0,43,0.00,,,0.00,HR-IXPWINDi_r2_v1.2.,2013-01-23 06:02:00,
2013-01-23 01:07:00,20.6,2.2,30.34,NE,38,6.0,10.0,44,0.00,,,0.00,HR-IXPWINDi_r2_v1.2.,2013-01-23 06:07:00,
2013-01-23 01:12:00,20.8,1.9,30.34,ESE,104,3.0,12.0,43,0.00,,,0.00,HR-IXPWINDi_r2_v1.2.,2013-01-23 06:12:00,
2013-01-23 01:17:00,20.9,2.5,30.34,NW,323,0.0,12.0,44,0.00,,,0.00,HR-IXPWINDi_r2_v1.2.,2013-01-23 06:17:00,
2013-01-23 01:23:00,20.9,2.0,30.34,North,5,0.0,5.0,43,0.00,,,0.00,HR-IXPWINDi_r2_v1.2.,2013-01-23 06:23:00,
2013-01-23 01:28:00,21.0,2.6,30.33,NE,50,2.0,7.0,44,0.00,,,0.00,HR-IXPWINDi_r2_v1.2.,2013-01-23 06:28:00,
2013-01-23 01:33:00,21.1,2.7,30.33,WNW,303,1.0,7.0,44,0.00,,,0.00,HR-IXPWINDi_r2_v1.2.,2013-01-23 06:33:00,
2013-01-23 01:38:00,21.2,2.3,30.33,NNE,17,0.0,6.0,43,0.00,,,0.00,HR-IXPWINDi_r2_v1.2.,2013-01-23 06:38:00,
2013-01-23 01:44:00,21.2,3.2,30.33,North,10,2.0,6.0,45,0.00,,,0.00,HR-IXPWINDi_r2_v1.2.,2013-01-23 06:44:00,
2013-01-23 01:49:00,21.2,2.3,30.34,WNW,299,1.0,3.0,43,0.00,,,0.00,HR-IXPWINDi_r2_v1.2.,2013-01-23 06:49:00,
2013-01-23 01:54:00,21.2,2.3,30.34,WNW,302,1.0,3.0,43,0.00,,,0.00,HR-IXPWINDi_r2_v1.2.,2013-01-23 06:54:00,
2013-01-23 01:59:00,21.2,2.3,30.34,WNW,288,2.0,2.0,43,0.00,,,0.00,HR-IXPWINDi_r2_v1.2.,2013-01-23 06:59:00,
2013-01-23 02:04:00,21.3,1.9,30.34,NW,317,1.0,11.0,42,0.00,,,0.00,HR-IXPWINDi_r2_v1.2.,2013-01-23 07:04:00,
2013-01-23 02:09:00,21.2,2.8,30.35,NNW,329,0.0,11.0,44,0.00,,,0.00,HR-IXPWINDi_r2_v1.2.,2013-01-23 07:09:00,
2013-01-23 02:14:00,21.2,1.8,30.35,NNW,346,2.0,7.0,42,0.00,,,0.00,HR-IXPWINDi_r2_v1.2.,2013-01-23 07:14:00,
2013-01-23 02:20:00,21.2,2.3,30.35,SSE,150,0.0,7.0,43,0.00,,,0.00,HR-IXPWINDi_r2_v1.2.,2013-01-23 07:20:00,
2013-01-23 02:25:00,21.2,2.8,30.35,NW,310,0.0,6.0,44,0.00,,,0.00,HR-IXPWINDi_r2_v1.2.,2013-01-23 07:25:00,
2013-01-23 02:30:00,21.1,2.2,30.35,NNE,15,0.0,3.0,43,0.00,,,0.00,HR-IXPWINDi_r2_v1.2.,2013-01-23 07:30:00,
2013-01-23 02:35:00,21.0,3.1,30.36,North,9,0.0,2.0,45,0.00,,,0.00,HR-IXPWINDi_r2_v1.2.,2013-01-23 07:35:00,
2013-01-23 02:41:00,20.9,1.5,30.36,NW,307,1.0,7.0,42,0.00,,,0.00,HR-IXPWINDi_r2_v1.2.,2013-01-23 07:41:00,
2013-01-23 02:46:00,20.9,2.0,30.36,NW,318,4.0,7.0,43,0.00,,,0.00,HR-IXPWINDi_r2_v1.2.,2013-01-23 07:46:00,
2013-01-23 02:51:00,20.8,1.9,30.36,NW,310,0.0,7.0,43,0.00,,,0.00,HR-IXPWINDi_r2_v1.2.,2013-01-23 07:51:00,
2013-01-23 02:56:00,20.6,2.2,30.36,NW,310,0.0,4.0,44,0.00,,,0.00,HR-IXPWINDi_r2_v1.2.,2013-01-23 07:56:00,
2013-01-23 03:01:00,20.6,1.7,30.36,WNW,289,2.0,5.0,43,0.00,,,0.00,HR-IXPWINDi_r2_v1.2.,2013-01-23 08:01:00,
2013-01-23 03:06:00,20.4,2.0,30.36,SSW,203,0.0,5.0,44,0.00,,,0.00,HR-IXPWINDi_r2_v1.2.,2013-01-23 08:06:00,
2013-01-23 03:11:00,20.3,2.4,30.36,WNW,292,0.0,3.0,45,0.00,,,0.00,HR-IXPWINDi_r2_v1.2.,2013-01-23 08:11:00,
2013-01-23 03:16:00,20.0,3.1,30.36,WNW,292,0.0,3.0,47,0.00,,,0.00,HR-IXPWINDi_r2_v1.2.,2013-01-23 08:16:00,
2013-01-23 03:22:00,19.8,3.4,30.36,NW,321,0.0,3.0,48,0.00,,,0.00,HR-IXPWINDi_r2_v1.2.,2013-01-23 08:22:00,
2013-01-23 03:27:00,19.5,3.1,30.36,NW,304,2.0,4.0,48,0.00,,,0.00,HR-IXPWINDi_r2_v1.2.,2013-01-23 08:27:00,
2013-01-23 03:32:00,19.6,2.3,30.36,North,9,2.0,4.0,46,0.00,,,0.00,HR-IXPWINDi_r2_v1.2.,2013-01-23 08:32:00,
2013-01-23 03:37:00,19.4,3.4,30.37,NNW,340,1.0,4.0,49,0.00,,,0.00,HR-IXPWINDi_r2_v1.2.,2013-01-23 08:37:00,
2013-01-23 03:42:00,19.2,2.8,30.36,NW,305,3.0,5.0,48,0.00,,,0.00,HR-IXPWINDi_r2_v1.2.,2013-01-23 08:42:00,
2013-01-23 03:48:00,19.3,2.9,30.36,NW,317,2.0,5.0,48,0.00,,,0.00,HR-IXPWINDi_r2_v1.2.,2013-01-23 08:48:00,
2013-01-23 03:53:00,19.2,2.8,30.36,NW,318,0.0,4.0,48,0.00,,,0.00,HR-IXPWINDi_r2_v1.2.,2013-01-23 08:53:00,
2013-01-23 03:58:00,19.0,3.1,30.36,NW,315,0.0,4.0,49,0.00,,,0.00,HR-IXPWINDi_r2_v1.2.,2013-01-23 08:58:00,
2013-01-23 04:04:00,19.0,3.5,30.36,NW,320,0.0,4.0,50,0.00,,,0.00,HR-IXPWINDi_r2_v1.2.,2013-01-23 09:04:00,
2013-01-23 04:09:00,19.1,2.7,30.36,NNW,346,0.0,3.0,48,0.00,,,0.00,HR-IXPWINDi_r2_v1.2.,2013-01-23 09:09:00,
2013-01-23 04:14:00,19.1,3.6,30.36,NW,309,0.0,3.0,50,0.00,,,0.00,HR-IXPWINDi_r2_v1.2.,2013-01-23 09:14:00,
2013-01-23 04:19:00,19.1,3.6,30.36,WNW,301,0.0,5.0,50,0.00,,,0.00,HR-IXPWINDi_r2_v1.2.,2013-01-23 09:19:00,
2013-01-23 04:24:00,19.1,3.6,30.36,WNW,301,3.0,5.0,50,0.00,,,0.00,HR-IXPWINDi_r2_v1.2.,2013-01-23 09:24:00,
2013-01-23 04:30:00,19.1,4.8,30.36,NW,306,0.0,3.0,53,0.00,,,0.00,HR-IXPWINDi_r2_v1.2.,2013-01-23 09:30:00,
2013-01-23 04:35:00,19.0,3.5,30.36,NW,306,2.0,3.0,50,0.00,,,0.00,HR-IXPWINDi_r2_v1.2.,2013-01-23 09:35:00,
2013-01-23 04:40:00,19.0,3.1,30.36,NW,313,0.0,4.0,49,0.00,,,0.00,HR-IXPWINDi_r2_v1.2.,2013-01-23 09:40:00,
2013-01-23 04:45:00,19.0,3.1,30.36,NW,313,0.0,4.0,49,0.00,,,0.00,HR-IXPWINDi_r2_v1.2.,2013-01-23 09:45:00,
2013-01-23 04:50:00,19.0,3.5,30.36,NW,309,0.0,3.0,50,0.00,,,0.00,HR-IXPWINDi_r2_v1.2.,2013-01-23 09:50:00,
2013-01-23 04:55:00,19.0,3.5,30.35,NW,315,0.0,4.0,50,0.00,,,0.00,HR-IXPWINDi_r2_v1.2.,2013-01-23 09:55:00,
2013-01-23 05:01:00,18.9,3.4,30.35,NW,315,0.0,4.0,50,0.00,,,0.00,HR-IXPWINDi_r2_v1.2.,2013-01-23 10:01:00,
2013-01-23 05:06:00,18.9,3.0,30.35,NW,321,0.0,4.0,49,0.00,,,0.00,HR-IXPWINDi_r2_v1.2.,2013-01-23 10:06:00,
2013-01-23 05:12:00,19.0,3.1,30.36,North,355,1.0,4.0,49,0.00,,,0.00,HR-IXPWINDi_r2_v1.2.,2013-01-23 10:12:00,
2013-01-23 05:17:00,19.0,3.1,30.36,NW,317,0.0,4.0,49,0.00,,,0.00,HR-IXPWINDi_r2_v1.2.,2013-01-23 10:17:00,
2013-01-23 05:22:00,18.9,3.0,30.36,NW,323,0.0,4.0,49,0.00,,,0.00,HR-IXPWINDi_r2_v1.2.,2013-01-23 10:22:00,
2013-01-23 05:27:00,18.9,3.4,30.36,NW,311,1.0,4.0,50,0.00,,,0.00,HR-IXPWINDi_r2_v1.2.,2013-01-23 10:27:00,
2013-01-23 05:32:00,18.9,3.4,30.37,NNW,329,4.0,4.0,50,0.00,,,0.00,HR-IXPWINDi_r2_v1.2.,2013-01-23 10:32:00,
2013-01-23 05:37:00,18.9,3.4,30.37,North,5,1.0,4.0,50,0.00,,,0.00,HR-IXPWINDi_r2_v1.2.,2013-01-23 10:37:00,
2013-01-23 05:42:00,18.9,3.4,30.37,North,5,2.0,4.0,50,0.00,,,0.00,HR-IXPWINDi_r2_v1.2.,2013-01-23 10:42:00,
2013-01-23 05:47:00,18.9,3.4,30.37,NW,313,2.0,4.0,50,0.00,,,0.00,HR-IXPWINDi_r2_v1.2.,2013-01-23 10:47:00,
2013-01-23 05:52:00,18.9,3.0,30.37,North,350,0.0,4.0,49,0.00,,,0.00,HR-IXPWINDi_r2_v1.2.,2013-01-23 10:52:00,
2013-01-23 05:58:00,18.8,3.3,30.37,NW,312,0.0,5.0,50,0.00,,,0.00,HR-IXPWINDi_r2_v1.2.,2013-01-23 10:58:00,
2013-01-23 06:03:00,18.8,3.3,30.38,WNW,288,1.0,5.0,50,0.00,,,0.00,HR-IXPWINDi_r2_v1.2.,2013-01-23 11:03:00,
2013-01-23 06:09:00,18.8,2.9,30.38,NW,313,1.0,4.0,49,0.00,,,0.00,HR-IXPWINDi_r2_v1.2.,2013-01-23 11:09:00,
2013-01-23 06:14:00,18.7,3.2,30.37,NNW,336,1.0,4.0,50,0.00,,,0.00,HR-IXPWINDi_r2_v1.2.,2013-01-23 11:14:00,
2013-01-23 06:19:00,18.6,3.1,30.37,NNW,333,2.0,3.0,50,0.00,,,0.00,HR-IXPWINDi_r2_v1.2.,2013-01-23 11:19:00,
2013-01-23 06:25:00,18.5,3.5,30.38,NNW,327,1.0,3.0,51,0.00,,,0.00,HR-IXPWINDi_r2_v1.2.,2013-01-23 11:25:00,
2013-01-23 06:30:00,18.3,4.5,30.38,NNW,327,0.0,3.0,54,0.00,,,0.00,HR-IXPWINDi_r2_v1.2.,2013-01-23 11:30:00,
2013-01-23 06:35:00,18.3,3.3,30.38,NW,313,0.0,4.0,51,0.00,,,0.00,HR-IXPWINDi_r2_v1.2.,2013-01-23 11:35:00,
2013-01-23 06:40:00,18.2,3.2,30.38,NW,313,0.0,4.0,51,0.00,,,0.00,HR-IXPWINDi_r2_v1.2.,2013-01-23 11:40:00,
2013-01-23 06:46:00,18.2,3.2,30.38,NNW,327,0.0,3.0,51,0.00,,,0.00,HR-IXPWINDi_r2_v1.2.,2013-01-23 11:46:00,
2013-01-23 06:51:00,18.2,3.2,30.38,NNW,327,0.0,3.0,51,0.00,,,0.00,HR-IXPWINDi_r2_v1.2.,2013-01-23 11:51:00,
2013-01-23 06:57:00,18.1,3.1,30.38,WNW,298,0.0,3.0,51,0.00,,,0.00,HR-IXPWINDi_r2_v1.2.,2013-01-23 11:57:00,
2013-01-23 07:02:00,18.1,3.1,30.38,WNW,298,1.0,3.0,51,0.00,,,0.00,HR-IXPWINDi_r2_v1.2.,2013-01-23 12:02:00,
2013-01-23 07:07:00,18.0,3.4,30.39,WNW,298,1.0,2.0,52,0.00,,,0.00,HR-IXPWINDi_r2_v1.2.,2013-01-23 12:07:00,
2013-01-23 07:12:00,18.0,3.0,30.39,North,355,0.0,2.0,51,0.00,,,0.00,HR-IXPWINDi_r2_v1.2.,2013-01-23 12:12:00,
2013-01-23 07:17:00,18.0,3.4,30.39,North,5,2.0,2.0,52,0.00,,,0.00,HR-IXPWINDi_r2_v1.2.,2013-01-23 12:17:00,
2013-01-23 07:22:00,18.0,3.4,30.39,West,265,0.0,3.0,52,0.00,,,0.00,HR-IXPWINDi_r2_v1.2.,2013-01-23 12:22:00,
2013-01-23 07:27:00,18.1,3.9,30.39,WNW,303,1.0,4.0,53,0.00,,,0.00,HR-IXPWINDi_r2_v1.2.,2013-01-23 12:27:00,
2013-01-23 07:32:00,18.2,3.6,30.39,WNW,296,0.0,7.0,52,0.00,,,0.00,HR-IXPWINDi_r2_v1.2.,2013-01-23 12:32:00,
2013-01-23 07:37:00,18.2,3.6,30.39,WNW,285,2.0,7.0,52,0.00,,,0.00,HR-IXPWINDi_r2_v1.2.,2013-01-23 12:37:00,
2013-01-23 07:42:00,18.3,3.7,30.39,NW,308,0.0,4.0,52,0.00,,,0.00,HR-IXPWINDi_r2_v1.2.,2013-01-23 12:42:00,
2013-01-23 07:48:00,18.3,3.7,30.39,South,174,1.0,4.0,52,0.00,,,0.00,HR-IXPWINDi_r2_v1.2.,2013-01-23 12:48:00,
2013-01-23 07:53:00,18.4,3.4,30.39,NW,305,0.0,7.0,51,0.00,,,0.00,HR-IXPWINDi_r2_v1.2.,2013-01-23 12:53:00,
2013-01-23 07:58:00,18.5,3.5,30.39,NW,305,2.0,7.0,51,0.00,,,0.00,HR-IXPWINDi_r2_v1.2.,2013-01-23 12:58:00,
2013-01-23 08:04:00,18.7,4.1,30.39,WNW,300,0.0,6.0,52,0.00,,,0.00,HR-IXPWINDi_r2_v1.2.,2013-01-23 13:04:00,
2013-01-23 08:09:00,18.8,3.7,30.39,NW,308,1.0,6.0,51,0.00,,,0.00,HR-IXPWINDi_r2_v1.2.,2013-01-23 13:09:00,
2013-01-23 08:14:00,18.9,3.8,30.39,NNE,22,1.0,5.0,51,0.00,,,0.00,HR-IXPWINDi_r2_v1.2.,2013-01-23 13:14:00,
2013-01-23 08:19:00,19.0,3.9,30.39,North,355,0.0,5.0,51,0.00,,,0.00,HR-IXPWINDi_r2_v1.2.,2013-01-23 13:19:00,
2013-01-23 08:24:00,19.0,4.3,30.39,NNE,22,3.0,5.0,52,0.00,,,0.00,HR-IXPWINDi_r2_v1.2.,2013-01-23 13:24:00,
2013-01-23 08:29:00,19.1,3.6,30.39,NW,313,0.0,5.0,50,0.00,,,0.00,HR-IXPWINDi_r2_v1.2.,2013-01-23 13:29:00,
2013-01-23 08:35:00,19.3,3.8,30.39,NW,314,4.0,5.0,50,0.00,,,0.00,HR-IXPWINDi_r2_v1.2.,2013-01-23 13:35:00,
2013-01-23 08:40:00,19.4,3.9,30.39,NNW,332,0.0,4.0,50,0.00,,,0.00,HR-IXPWINDi_r2_v1.2.,2013-01-23 13:40:00,
2013-01-23 08:45:00,19.5,4.0,30.39,NW,326,2.0,5.0,50,0.00,,,0.00,HR-IXPWINDi_r2_v1.2.,2013-01-23 13:45:00,
2013-01-23 08:50:00,19.8,4.2,30.39,WNW,294,5.0,7.0,50,0.00,,,0.00,HR-IXPWINDi_r2_v1.2.,2013-01-23 13:50:00,
2013-01-23 08:55:00,20.2,4.2,30.39,NW,323,4.0,7.0,49,0.00,,,0.00,HR-IXPWINDi_r2_v1.2.,2013-01-23 13:55:00,
2013-01-23 09:00:00,20.6,4.1,30.39,NW,315,2.0,7.0,48,0.00,,,0.00,HR-IXPWINDi_r2_v1.2.,2013-01-23 14:00:00,
2013-01-23 09:06:00,20.9,4.4,30.39,North,360,4.0,8.0,48,0.00,,,0.00,HR-IXPWINDi_r2_v1.2.,2013-01-23 14:06:00,
2013-01-23 09:11:00,21.0,4.0,30.40,NE,36,9.0,9.0,47,0.00,,,0.00,HR-IXPWINDi_r2_v1.2.,2013-01-23 14:11:00,
2013-01-23 09:16:00,20.9,3.4,30.39,NNW,347,1.0,12.0,46,0.00,,,0.00,HR-IXPWINDi_r2_v1.2.,2013-01-23 14:16:00,
2013-01-23 09:21:00,20.8,3.4,30.39,NE,52,0.0,12.0,46,0.00,,,0.00,HR-IXPWINDi_r2_v1.2.,2013-01-23 14:21:00,
2013-01-23 09:26:00,21.0,3.5,30.39,NNW,327,1.0,10.0,46,0.00,,,0.00,HR-IXPWINDi_r2_v1.2.,2013-01-23 14:26:00,
2013-01-23 09:32:00,21.2,3.7,30.39,NNW,328,3.0,9.0,46,0.00,,,0.00,HR-IXPWINDi_r2_v1.2.,2013-01-23 14:32:00,
2013-01-23 09:37:00,21.4,3.9,30.40,South,184,2.0,7.0,46,0.00,,,0.00,HR-IXPWINDi_r2_v1.2.,2013-01-23 14:37:00,
2013-01-23 09:42:00,21.6,3.1,30.40,WNW,300,3.0,7.0,44,0.00,,,0.00,HR-IXPWINDi_r2_v1.2.,2013-01-23 14:42:00,
2013-01-23 09:47:00,21.9,3.9,30.39,NNW,327,1.0,7.0,45,0.00,,,0.00,HR-IXPWINDi_r2_v1.2.,2013-01-23 14:47:00,
2013-01-23 09:52:00,22.1,3.6,30.39,NNW,331,1.0,6.0,44,0.00,,,0.00,HR-IXPWINDi_r2_v1.2.,2013-01-23 14:52:00,
2013-01-23 09:58:00,22.5,3.9,30.40,NNE,27,0.0,6.0,44,0.00,,,0.00,HR-IXPWINDi_r2_v1.2.,2013-01-23 14:58:00,
2013-01-23 10:03:00,22.7,3.1,30.40,SSE,149,3.0,7.0,42,0.00,,,0.00,HR-IXPWINDi_r2_v1.2.,2013-01-23 15:03:00,
2013-01-23 10:08:00,22.6,3.0,30.40,NNW,341,2.0,8.0,42,0.00,,,0.00,HR-IXPWINDi_r2_v1.2.,2013-01-23 15:08:00,
2013-01-23 10:14:00,22.9,2.8,30.40,NNW,334,1.0,8.0,41,0.00,,,0.00,HR-IXPWINDi_r2_v1.2.,2013-01-23 15:14:00,
2013-01-23 10:19:00,23.2,2.5,30.40,WNW,298,2.0,12.0,40,0.00,,,0.00,HR-IXPWINDi_r2_v1.2.,2013-01-23 15:19:00,
2013-01-23 10:24:00,23.4,2.2,30.40,NNW,335,0.0,12.0,39,0.00,,,0.00,HR-IXPWINDi_r2_v1.2.,2013-01-23 15:24:00,
2013-01-23 10:29:00,23.7,3.5,30.40,NW,313,1.0,9.0,41,0.00,,,0.00,HR-IXPWINDi_r2_v1.2.,2013-01-23 15:29:00,
2013-01-23 10:34:00,23.9,3.2,30.40,South,169,0.0,6.0,40,0.00,,,0.00,HR-IXPWINDi_r2_v1.2.,2013-01-23 15:34:00,
2013-01-23 10:40:00,24.2,1.8,30.40,NW,313,2.0,6.0,37,0.00,,,0.00,HR-IXPWINDi_r2_v1.2.,2013-01-23 15:40:00,
2013-01-23 10:45:00,24.4,1.9,30.40,SW,224,0.0,6.0,37,0.00,,,0.00,HR-IXPWINDi_r2_v1.2.,2013-01-23 15:45:00,
2013-01-23 10:50:00,24.8,1.7,30.39,NW,317,0.0,9.0,36,0.00,,,0.00,HR-IXPWINDi_r2_v1.2.,2013-01-23 15:50:00,
2013-01-23 10:55:00,25.2,2.6,30.39,North,355,1.0,9.0,37,0.00,,,0.00,HR-IXPWINDi_r2_v1.2.,2013-01-23 15:55:00,
2013-01-23 11:00:00,25.5,1.7,30.39,NW,309,3.0,7.0,35,0.00,,,0.00,HR-IXPWINDi_r2_v1.2.,2013-01-23 16:00:00,
2013-01-23 11:05:00,25.8,1.4,30.39,East,87,5.0,7.0,34,0.00,,,0.00,HR-IXPWINDi_r2_v1.2.,2013-01-23 16:05:00,
2013-01-23 11:11:00,25.9,1.5,30.39,SSW,208,3.0,8.0,34,0.00,,,0.00,HR-IXPWINDi_r2_v1.2.,2013-01-23 16:11:00,
2013-01-23 11:16:00,26.2,0.4,30.38,North,355,3.0,8.0,32,0.00,,,0.00,HR-IXPWINDi_r2_v1.2.,2013-01-23 16:16:00,
2013-01-23 11:21:00,26.6,0.1,30.38,SW,223,1.0,8.0,31,0.00,,,0.00,HR-IXPWINDi_r2_v1.2.,2013-01-23 16:21:00,
2013-01-23 11:26:00,26.7,1.5,30.38,NW,309,3.0,7.0,33,0.00,,,0.00,HR-IXPWINDi_r2_v1.2.,2013-01-23 16:26:00,
2013-01-23 11:31:00,26.7,0.9,30.37,WNW,286,3.0,8.0,32,0.00,,,0.00,HR-IXPWINDi_r2_v1.2.,2013-01-23 16:31:00,
2013-01-23 11:36:00,26.9,0.4,30.36,NW,309,3.0,8.0,31,0.00,,,0.00,HR-IXPWINDi_r2_v1.2.,2013-01-23 16:36:00,
2013-01-23 11:41:00,27.2,0.0,30.36,SSW,200,1.0,7.0,30,0.00,,,0.00,HR-IXPWINDi_r2_v1.2.,2013-01-23 16:41:00,
2013-01-23 11:46:00,27.5,-0.3,30.36,SE,131,3.0,9.0,29,0.00,,,0.00,HR-IXPWINDi_r2_v1.2.,2013-01-23 16:46:00,
2013-01-23 11:51:00,27.7,0.4,30.35,East,84,0.0,9.0,30,0.00,,,0.00,HR-IXPWINDi_r2_v1.2.,2013-01-23 16:51:00,
2013-01-23 11:56:00,27.7,-0.1,30.35,North,351,5.0,9.0,29,0.00,,,0.00,HR-IXPWINDi_r2_v1.2.,2013-01-23 16:56:00,
2013-01-23 12:01:00,27.8,-0.8,30.35,ESE,117,9.0,10.0,28,0.00,,,0.00,HR-IXPWINDi_r2_v1.2.,2013-01-23 17:01:00,
2013-01-23 12:07:00,27.9,0.6,30.34,NW,313,7.0,10.0,30,0.00,,,0.00,HR-IXPWINDi_r2_v1.2.,2013-01-23 17:07:00,
2013-01-23 12:12:00,28.3,1.6,30.33,NNE,23,5.0,10.0,31,0.00,,,0.00,HR-IXPWINDi_r2_v1.2.,2013-01-23 17:12:00,
2013-01-23 12:17:00,29.0,2.9,30.33,NW,309,0.0,8.0,32,0.00,,,0.00,HR-IXPWINDi_r2_v1.2.,2013-01-23 17:17:00,
2013-01-23 12:22:00,29.4,1.1,30.33,NW,310,3.0,10.0,29,0.00,,,0.00,HR-IXPWINDi_r2_v1.2.,2013-01-23 17:22:00,
2013-01-23 12:27:00,29.5,1.2,30.33,NW,323,6.0,10.0,29,0.00,,,0.00,HR-IXPWINDi_r2_v1.2.,2013-01-23 17:27:00,
2013-01-23 12:32:00,29.6,2.7,30.32,NW,315,2.0,10.0,31,0.00,,,0.00,HR-IXPWINDi_r2_v1.2.,2013-01-23 17:32:00,
2013-01-23 12:37:00,30.1,2.5,30.32,NW,306,3.0,10.0,30,0.00,,,0.00,HR-IXPWINDi_r2_v1.2.,2013-01-23 17:37:00,
2013-01-23 12:42:00,30.4,2.0,30.31,NNE,21,10.0,10.0,29,0.00,,,0.00,HR-IXPWINDi_r2_v1.2.,2013-01-23 17:42:00,
2013-01-23 12:47:00,30.4,3.4,30.31,NNW,329,0.0,10.0,31,0.00,,,0.00,HR-IXPWINDi_r2_v1.2.,2013-01-23 17:47:00,
2013-01-23 12:53:00,30.5,2.8,30.30,NW,325,3.0,10.0,30,0.00,,,0.00,HR-IXPWINDi_r2_v1.2.,2013-01-23 17:53:00,
2013-01-23 12:58:00,30.4,5.4,30.31,NNW,333,2.0,9.0,34,0.00,,,0.00,HR-IXPWINDi_r2_v1.2.,2013-01-23 17:58:00,
2013-01-23 13:03:00,30.2,3.3,30.30,North,5,6.0,10.0,31,0.00,,,0.00,HR-IXPWINDi_r2_v1.2.,2013-01-23 18:03:00,
2013-01-23 13:08:00,30.1,3.2,30.30,NNW,336,2.0,10.0,31,0.00,,,0.00,HR-IXPWINDi_r2_v1.2.,2013-01-23 18:08:00,
2013-01-23 13:14:00,30.1,3.9,30.30,NW,312,1.0,9.0,32,0.00,,,0.00,HR-IXPWINDi_r2_v1.2.,2013-01-23 18:14:00,
2013-01-23 13:19:00,30.2,3.3,30.29,NW,317,2.0,10.0,31,0.00,,,0.00,HR-IXPWINDi_r2_v1.2.,2013-01-23 18:19:00,
2013-01-23 13:24:00,30.5,4.9,30.29,NNW,340,3.0,10.0,33,0.00,,,0.00,HR-IXPWINDi_r2_v1.2.,2013-01-23 18:24:00,
2013-01-23 13:29:00,30.8,5.8,30.29,NNE,19,0.0,10.0,34,0.00,,,0.00,HR-IXPWINDi_r2_v1.2.,2013-01-23 18:29:00,
2013-01-23 13:35:00,31.1,7.3,30.28,WNW,292,2.0,6.0,36,0.00,,,0.00,HR-IXPWINDi_r2_v1.2.,2013-01-23 18:35:00,
2013-01-23 13:40:00,31.0,6.0,30.28,NW,315,5.0,11.0,34,0.00,,,0.00,HR-IXPWINDi_r2_v1.2.,2013-01-23 18:40:00,
2013-01-23 13:45:00,31.1,7.3,30.28,NW,323,3.0,11.0,36,0.00,,,0.00,HR-IXPWINDi_r2_v1.2.,2013-01-23 18:45:00,
2013-01-23 13:50:00,31.4,7.6,30.28,WNW,297,6.0,8.0,36,0.00,,,0.00,HR-IXPWINDi_r2_v1.2.,2013-01-23 18:50:00,
2013-01-23 13:55:00,31.8,7.9,30.27,North,5,0.0,7.0,36,0.00,,,0.00,HR-IXPWINDi_r2_v1.2.,2013-01-23 18:55:00,
2013-01-23 14:00:00,32.0,8.1,30.27,NW,324,3.0,11.0,36,0.00,,,0.00,HR-IXPWINDi_r2_v1.2.,2013-01-23 19:00:00,
2013-01-23 14:06:00,32.1,8.8,30.27,NW,306,4.0,11.0,37,0.00,,,0.00,HR-IXPWINDi_r2_v1.2.,2013-01-23 19:06:00,
2013-01-23 14:11:00,32.2,8.9,30.27,NNW,331,1.0,6.0,37,0.00,,,0.00,HR-IXPWINDi_r2_v1.2.,2013-01-23 19:11:00,
2013-01-23 14:16:00,32.2,8.9,30.26,NNW,337,1.0,6.0,37,0.00,,,0.00,HR-IXPWINDi_r2_v1.2.,2013-01-23 19:16:00,
2013-01-23 14:21:00,32.4,10.2,30.26,NW,315,2.0,7.0,39,0.00,,,0.00,HR-IXPWINDi_r2_v1.2.,2013-01-23 19:21:00,
2013-01-23 14:26:00,32.1,10.0,30.26,NNW,347,1.0,8.0,39,0.00,,,0.00,HR-IXPWINDi_r2_v1.2.,2013-01-23 19:26:00,
2013-01-23 14:31:00,32.0,10.4,30.26,NW,314,2.0,8.0,40,0.00,,,0.00,HR-IXPWINDi_r2_v1.2.,2013-01-23 19:31:00,
2013-01-23 14:37:00,32.1,10.5,30.26,NNE,24,4.0,7.0,40,0.00,,,0.00,HR-IXPWINDi_r2_v1.2.,2013-01-23 19:37:00,
2013-01-23 14:42:00,32.3,11.3,30.25,NE,42,1.0,8.0,41,0.00,,,0.00,HR-IXPWINDi_r2_v1.2.,2013-01-23 19:42:00,
2013-01-23 14:47:00,32.5,10.9,30.25,SW,225,0.0,8.0,40,0.00,,,0.00,HR-IXPWINDi_r2_v1.2.,2013-01-23 19:47:00,
2013-01-23 14:52:00,32.9,12.3,30.25,NNE,26,2.0,8.0,42,0.00,,,0.00,HR-IXPWINDi_r2_v1.2.,2013-01-23 19:52:00,
2013-01-23 14:57:00,32.8,12.3,30.25,NNW,333,2.0,7.0,42,0.00,,,0.00,HR-IXPWINDi_r2_v1.2.,2013-01-23 19:57:00,
2013-01-23 15:03:00,32.3,12.9,30.25,SE,133,1.0,7.0,44,0.00,,,0.00,HR-IXPWINDi_r2_v1.2.,2013-01-23 20:03:00,
2013-01-23 15:08:00,32.1,13.2,30.25,NNE,32,6.0,8.0,45,0.00,,,0.00,HR-IXPWINDi_r2_v1.2.,2013-01-23 20:08:00,
2013-01-23 15:13:00,32.1,13.7,30.25,NW,316,4.0,8.0,46,0.00,,,0.00,HR-IXPWINDi_r2_v1.2.,2013-01-23 20:13:00,
2013-01-23 15:18:00,32.1,13.2,30.25,ESE,112,0.0,10.0,45,0.00,,,0.00,HR-IXPWINDi_r2_v1.2.,2013-01-23 20:18:00,
2013-01-23 15:23:00,32.1,13.7,30.25,WNW,296,5.0,10.0,46,0.00,,,0.00,HR-IXPWINDi_r2_v1.2.,2013-01-23 20:23:00,
2013-01-23 15:28:00,32.1,14.2,30.26,NNE,22,4.0,9.0,47,0.00,,,0.00,HR-IXPWINDi_r2_v1.2.,2013-01-23 20:28:00,
2013-01-23 15:34:00,32.0,14.1,30.25,NW,304,0.0,9.0,47,0.00,,,0.00,HR-IXPWINDi_r2_v1.2.,2013-01-23 20:34:00,
2013-01-23 15:39:00,32.0,14.1,30.25,NW,304,4.0,6.0,47,0.00,,,0.00,HR-IXPWINDi_r2_v1.2.,2013-01-23 20:39:00,
2013-01-23 15:44:00,31.9,14.5,30.25,NW,321,7.0,7.0,48,0.00,,,0.00,HR-IXPWINDi_r2_v1.2.,2013-01-23 20:44:00,
2013-01-23 15:49:00,31.8,14.4,30.25,NW,321,3.0,9.0,48,0.00,,,0.00,HR-IXPWINDi_r2_v1.2.,2013-01-23 20:49:00,
2013-01-23 15:54:00,31.7,14.7,30.26,SW,231,0.0,9.0,49,0.00,,,0.00,HR-IXPWINDi_r2_v1.2.,2013-01-23 20:54:00,
2013-01-23 16:00:00,31.6,15.1,30.25,North,355,2.0,7.0,50,0.00,,,0.00,HR-IXPWINDi_r2_v1.2.,2013-01-23 21:00:00,
2013-01-23 16:05:00,31.5,15.5,30.25,West,279,1.0,7.0,51,0.00,,,0.00,HR-IXPWINDi_r2_v1.2.,2013-01-23 21:05:00,
2013-01-23 16:10:00,31.5,15.5,30.25,WSW,245,1.0,7.0,51,0.00,,,0.00,HR-IXPWINDi_r2_v1.2.,2013-01-23 21:10:00,
2013-01-23 16:15:00,31.4,15.8,30.25,WNW,296,2.0,9.0,52,0.00,,,0.00,HR-IXPWINDi_r2_v1.2.,2013-01-23 21:15:00,
2013-01-23 16:20:00,31.4,15.8,30.25,SSE,167,4.0,9.0,52,0.00,,,0.00,HR-IXPWINDi_r2_v1.2.,2013-01-23 21:20:00,
2013-01-23 16:25:00,31.4,16.3,30.25,NW,306,1.0,7.0,53,0.00,,,0.00,HR-IXPWINDi_r2_v1.2.,2013-01-23 21:25:00,
2013-01-23 16:31:00,31.3,16.2,30.25,WNW,293,2.0,7.0,53,0.00,,,0.00,HR-IXPWINDi_r2_v1.2.,2013-01-23 21:31:00,
2013-01-23 16:36:00,31.3,16.2,30.25,NNW,335,1.0,7.0,53,0.00,,,0.00,HR-IXPWINDi_r2_v1.2.,2013-01-23 21:36:00,
2013-01-23 16:41:00,31.2,16.1,30.25,NNW,333,1.0,7.0,53,0.00,,,0.00,HR-IXPWINDi_r2_v1.2.,2013-01-23 21:41:00,
2013-01-23 16:46:00,31.1,16.8,30.25,WNW,296,2.0,6.0,55,0.00,,,0.00,HR-IXPWINDi_r2_v1.2.,2013-01-23 21:46:00,
2013-01-23 16:51:00,31.1,16.4,30.24,NNW,343,0.0,7.0,54,0.00,,,0.00,HR-IXPWINDi_r2_v1.2.,2013-01-23 21:51:00,
2013-01-23 16:57:00,31.0,16.7,30.24,NW,311,5.0,7.0,55,0.00,,,0.00,HR-IXPWINDi_r2_v1.2.,2013-01-23 21:57:00,
2013-01-23 17:02:00,31.0,17.2,30.24,NW,311,3.0,5.0,56,0.00,,,0.00,HR-IXPWINDi_r2_v1.2.,2013-01-23 22:02:00,
2013-01-23 17:07:00,31.0,17.2,30.24,NNW,327,0.0,7.0,56,0.00,,,0.00,HR-IXPWINDi_r2_v1.2.,2013-01-23 22:07:00,
2013-01-23 17:12:00,31.0,17.2,30.24,NNW,328,1.0,7.0,56,0.00,,,0.00,HR-IXPWINDi_r2_v1.2.,2013-01-23 22:12:00,
2013-01-23 17:18:00,30.9,17.5,30.24,NW,325,0.0,4.0,57,0.00,,,0.00,HR-IXPWINDi_r2_v1.2.,2013-01-23 22:18:00,
2013-01-23 17:23:00,30.9,17.5,30.23,NW,326,0.0,4.0,57,0.00,,,0.00,HR-IXPWINDi_r2_v1.2.,2013-01-23 22:23:00,
2013-01-23 17:28:00,30.9,17.1,30.23,NW,306,1.0,3.0,56,0.00,,,0.00,HR-IXPWINDi_r2_v1.2.,2013-01-23 22:28:00,
2013-01-23 17:33:00,30.9,17.1,30.23,WNW,295,3.0,3.0,56,0.00,,,0.00,HR-IXPWINDi_r2_v1.2.,2013-01-23 22:33:00,
2013-01-23 17:38:00,30.8,17.4,30.23,WNW,296,0.0,3.0,57,0.00,,,0.00,HR-IXPWINDi_r2_v1.2.,2013-01-23 22:38:00,
2013-01-23 17:43:00,30.8,17.4,30.22,WNW,296,0.0,3.0,57,0.00,,,0.00,HR-IXPWINDi_r2_v1.2.,2013-01-23 22:43:00,
2013-01-23 17:48:00,30.8,17.0,30.23,WNW,296,0.0,3.0,56,0.00,,,0.00,HR-IXPWINDi_r2_v1.2.,2013-01-23 22:48:00,
2013-01-23 17:53:00,30.8,17.4,30.23,SSW,207,2.0,3.0,57,0.00,,,0.00,HR-IXPWINDi_r2_v1.2.,2013-01-23 22:53:00,
2013-01-23 17:59:00,30.7,16.9,30.23,West,277,0.0,3.0,56,0.00,,,0.00,HR-IXPWINDi_r2_v1.2.,2013-01-23 22:59:00,
2013-01-23 18:04:00,30.8,17.4,30.22,North,349,0.0,3.0,57,0.00,,,0.00,HR-IXPWINDi_r2_v1.2.,2013-01-23 23:04:00,
2013-01-23 18:09:00,30.7,17.3,30.22,NNW,348,1.0,2.0,57,0.00,,,0.00,HR-IXPWINDi_r2_v1.2.,2013-01-23 23:09:00,
2013-01-23 18:14:00,30.7,17.3,30.22,NNW,348,0.0,2.0,57,0.00,,,0.00,HR-IXPWINDi_r2_v1.2.,2013-01-23 23:14:00,
2013-01-23 18:19:00,30.7,17.3,30.22,NNW,348,0.0,2.0,57,0.00,,,0.00,HR-IXPWINDi_r2_v1.2.,2013-01-23 23:19:00,
2013-01-23 18:24:00,30.7,17.3,30.22,NNW,348,0.0,1.0,57,0.00,,,0.00,HR-IXPWINDi_r2_v1.2.,2013-01-23 23:24:00,
2013-01-23 18:30:00,30.6,17.2,30.21,North,351,0.0,2.0,57,0.00,,,0.00,HR-IXPWINDi_r2_v1.2.,2013-01-23 23:30:00,
2013-01-23 18:35:00,30.6,17.2,30.21,North,351,0.0,2.0,57,0.00,,,0.00,HR-IXPWINDi_r2_v1.2.,2013-01-23 23:35:00,
2013-01-23 18:40:00,30.5,17.9,30.21,North,351,1.0,1.0,59,0.00,,,0.00,HR-IXPWINDi_r2_v1.2.,2013-01-23 23:40:00,
2013-01-23 18:45:00,30.6,17.6,30.21,North,351,0.0,2.0,58,0.00,,,0.00,HR-IXPWINDi_r2_v1.2.,2013-01-23 23:45:00,
2013-01-23 18:50:00,30.5,17.5,30.20,North,351,0.0,2.0,58,0.00,,,0.00,HR-IXPWINDi_r2_v1.2.,2013-01-23 23:50:00,
2013-01-23 18:55:00,30.5,17.5,30.21,North,351,1.0,1.0,58,0.00,,,0.00,HR-IXPWINDi_r2_v1.2.,2013-01-23 23:55:00,
2013-01-23 19:00:00,30.5,17.9,30.20,North,351,1.0,1.0,59,0.00,,,0.00,HR-IXPWINDi_r2_v1.2.,2013-01-24 00:00:00,
2013-01-23 19:06:00,30.5,17.5,30.20,North,351,0.0,1.0,58,0.00,,,0.00,HR-IXPWINDi_r2_v1.2.,2013-01-24 00:06:00,
2013-01-23 19:11:00,30.5,17.9,30.20,South,171,0.0,3.0,59,0.00,,,0.00,HR-IXPWINDi_r2_v1.2.,2013-01-24 00:11:00,
2013-01-23 19:16:00,30.4,17.8,30.20,South,171,0.0,3.0,59,0.00,,,0.00,HR-IXPWINDi_r2_v1.2.,2013-01-24 00:16:00,
2013-01-23 19:21:00,30.5,18.3,30.20,South,171,1.0,2.0,60,0.00,,,0.00,HR-IXPWINDi_r2_v1.2.,2013-01-24 00:21:00,
2013-01-23 19:27:00,30.5,17.5,30.20,South,171,0.0,2.0,58,0.00,,,0.00,HR-IXPWINDi_r2_v1.2.,2013-01-24 00:27:00,
2013-01-23 19:32:00,30.5,17.9,30.19,South,171,0.0,1.0,59,0.00,,,0.00,HR-IXPWINDi_r2_v1.2.,2013-01-24 00:32:00,
2013-01-23 19:37:00,30.5,18.3,30.20,South,171,0.0,1.0,60,0.00,,,0.00,HR-IXPWINDi_r2_v1.2.,2013-01-24 00:37:00,
2013-01-23 19:42:00,30.6,18.0,30.20,South,171,0.0,2.0,59,0.00,,,0.00,HR-IXPWINDi_r2_v1.2.,2013-01-24 00:42:00,
2013-01-23 19:47:00,30.6,17.6,30.19,South,171,0.0,2.0,58,0.00,,,0.00,HR-IXPWINDi_r2_v1.2.,2013-01-24 00:47:00,
2013-01-23 19:53:00,30.5,17.5,30.19,South,171,0.0,0.0,58,0.00,,,0.00,HR-IXPWINDi_r2_v1.2.,2013-01-24 00:53:00,
2013-01-23 19:58:00,30.5,17.9,30.18,South,171,0.0,0.0,59,0.00,,,0.00,HR-IXPWINDi_r2_v1.2.,2013-01-24 00:58:00,
2013-01-23 20:03:00,30.4,17.8,30.18,South,171,0.0,0.0,59,0.00,,,0.00,HR-IXPWINDi_r2_v1.2.,2013-01-24 01:03:00,
2013-01-23 20:08:00,30.4,17.8,30.18,South,171,0.0,0.0,59,0.00,,,0.00,HR-IXPWINDi_r2_v1.2.,2013-01-24 01:08:00,
2013-01-23 20:14:00,30.3,18.1,30.18,South,171,0.0,0.0,60,0.00,,,0.00,HR-IXPWINDi_r2_v1.2.,2013-01-24 01:14:00,
2013-01-23 20:19:00,30.3,18.1,30.18,South,171,0.0,0.0,60,0.00,,,0.00,HR-IXPWINDi_r2_v1.2.,2013-01-24 01:19:00,
2013-01-23 20:24:00,30.2,18.0,30.18,South,171,0.0,0.0,60,0.00,,,0.00,HR-IXPWINDi_r2_v1.2.,2013-01-24 01:24:00,
2013-01-23 20:29:00,30.2,18.4,30.18,South,171,0.0,0.0,61,0.00,,,0.00,HR-IXPWINDi_r2_v1.2.,2013-01-24 01:29:00,
2013-01-23 20:35:00,30.2,18.4,30.18,South,171,0.0,0.0,61,0.00,,,0.00,HR-IXPWINDi_r2_v1.2.,2013-01-24 01:35:00,
2013-01-23 20:40:00,30.2,18.8,30.17,South,171,0.0,0.0,62,0.00,,,0.00,HR-IXPWINDi_r2_v1.2.,2013-01-24 01:40:00,
2013-01-23 20:45:00,30.2,19.5,30.17,South,171,0.0,0.0,64,0.00,,,0.00,HR-IXPWINDi_r2_v1.2.,2013-01-24 01:45:00,
2013-01-23 20:50:00,30.2,19.1,30.17,South,171,0.0,0.0,63,0.00,,,0.00,HR-IXPWINDi_r2_v1.2.,2013-01-24 01:50:00,
2013-01-23 20:55:00,30.2,19.1,30.17,South,171,0.0,1.0,63,0.00,,,0.00,HR-IXPWINDi_r2_v1.2.,2013-01-24 01:55:00,
2013-01-23 21:00:00,30.3,19.2,30.16,South,171,0.0,1.0,63,0.00,,,0.00,HR-IXPWINDi_r2_v1.2.,2013-01-24 02:00:00,
2013-01-23 21:05:00,30.3,19.2,30.16,South,171,0.0,1.0,63,0.00,,,0.00,HR-IXPWINDi_r2_v1.2.,2013-01-24 02:05:00,
2013-01-23 21:11:00,30.2,19.1,30.15,South,171,0.0,1.0,63,0.00,,,0.00,HR-IXPWINDi_r2_v1.2.,2013-01-24 02:11:00,
2013-01-23 21:16:00,30.2,19.1,30.15,South,171,0.0,0.0,63,0.00,,,0.00,HR-IXPWINDi_r2_v1.2.,2013-01-24 02:16:00,
2013-01-23 21:21:00,30.1,18.7,30.15,South,171,0.0,1.0,62,0.00,,,0.00,HR-IXPWINDi_r2_v1.2.,2013-01-24 02:21:00,
2013-01-23 21:26:00,30.1,19.0,30.15,South,171,0.0,1.0,63,0.00,,,0.00,HR-IXPWINDi_r2_v1.2.,2013-01-24 02:26:00,
2013-01-23 21:32:00,30.0,18.6,30.15,South,171,0.0,1.0,62,0.00,,,0.00,HR-IXPWINDi_r2_v1.2.,2013-01-24 02:32:00,
2013-01-23 21:37:00,29.9,19.2,30.15,South,171,0.0,2.0,64,0.00,,,0.00,HR-IXPWINDi_r2_v1.2.,2013-01-24 02:37:00,
2013-01-23 21:42:00,29.8,18.8,30.15,South,171,0.0,2.0,63,0.00,,,0.00,HR-IXPWINDi_r2_v1.2.,2013-01-24 02:42:00,
2013-01-23 21:48:00,29.8,20.2,30.15,South,171,0.0,0.0,67,0.00,,,0.00,HR-IXPWINDi_r2_v1.2.,2013-01-24 02:48:00,
2013-01-23 21:53:00,29.8,20.5,30.15,South,171,0.0,0.0,68,0.00,,,0.00,HR-IXPWINDi_r2_v1.2.,2013-01-24 02:53:00,
2013-01-23 21:58:00,29.7,20.1,30.14,South,171,0.0,0.0,67,0.00,,,0.00,HR-IXPWINDi_r2_v1.2.,2013-01-24 02:58:00,
2013-01-23 22:03:00,29.7,19.7,30.14,South,171,0.0,0.0,66,0.00,,,0.00,HR-IXPWINDi_r2_v1.2.,2013-01-24 03:03:00,
2013-01-23 22:08:00,29.6,19.3,30.13,South,171,0.0,0.0,65,0.00,,,0.00,HR-IXPWINDi_r2_v1.2.,2013-01-24 03:08:00,
2013-01-23 22:14:00,29.7,19.4,30.13,South,171,0.0,0.0,65,0.00,,,0.00,HR-IXPWINDi_r2_v1.2.,2013-01-24 03:14:00,
2013-01-23 22:19:00,29.7,19.4,30.13,South,171,0.0,0.0,65,0.00,,,0.00,HR-IXPWINDi_r2_v1.2.,2013-01-24 03:19:00,
2013-01-23 22:24:00,29.6,19.6,30.13,South,171,0.0,0.0,66,0.00,,,0.00,HR-IXPWINDi_r2_v1.2.,2013-01-24 03:24:00,
2013-01-23 22:29:00,29.5,19.6,30.13,South,171,0.0,0.0,66,0.00,,,0.00,HR-IXPWINDi_r2_v1.2.,2013-01-24 03:29:00,
2013-01-23 22:34:00,29.4,19.5,30.13,South,171,0.0,0.0,66,0.00,,,0.00,HR-IXPWINDi_r2_v1.2.,2013-01-24 03:34:00,
2013-01-23 22:39:00,29.2,19.3,30.13,South,171,0.0,0.0,66,0.00,,,0.00,HR-IXPWINDi_r2_v1.2.,2013-01-24 03:39:00,
2013-01-23 22:45:00,29.1,19.2,30.13,South,171,0.0,0.0,66,0.00,,,0.00,HR-IXPWINDi_r2_v1.2.,2013-01-24 03:45:00,
2013-01-23 22:50:00,29.0,19.1,30.13,South,171,0.0,0.0,66,0.00,,,0.00,HR-IXPWINDi_r2_v1.2.,2013-01-24 03:50:00,
2013-01-23 22:55:00,28.9,19.0,30.13,South,171,0.0,0.0,66,0.00,,,0.00,HR-IXPWINDi_r2_v1.2.,2013-01-24 03:55:00,
2013-01-23 23:00:00,28.7,18.8,30.13,South,171,0.0,0.0,66,0.00,,,0.00,HR-IXPWINDi_r2_v1.2.,2013-01-24 04:00:00,
2013-01-23 23:05:00,28.6,18.7,30.12,South,171,0.0,0.0,66,0.00,,,0.00,HR-IXPWINDi_r2_v1.2.,2013-01-24 04:05:00,
2013-01-23 23:10:00,28.5,20.0,30.12,South,171,0.0,0.0,70,0.00,,,0.00,HR-IXPWINDi_r2_v1.2.,2013-01-24 04:10:00,
2013-01-23 23:15:00,28.4,20.2,30.11,South,171,0.0,0.0,71,0.00,,,0.00,HR-IXPWINDi_r2_v1.2.,2013-01-24 04:15:00,
2013-01-23 23:20:00,28.2,20.0,30.11,South,171,0.0,0.0,71,0.00,,,0.00,HR-IXPWINDi_r2_v1.2.,2013-01-24 04:20:00,
2013-01-23 23:26:00,28.1,19.9,30.11,South,171,0.0,0.0,71,0.00,,,0.00,HR-IXPWINDi_r2_v1.2.,2013-01-24 04:26:00,
2013-01-23 23:31:00,28.0,19.5,30.11,South,171,0.0,0.0,70,0.00,,,0.00,HR-IXPWINDi_r2_v1.2.,2013-01-24 04:31:00,
2013-01-23 23:36:00,27.9,19.7,30.11,South,171,0.0,0.0,71,0.00,,,0.00,HR-IXPWINDi_r2_v1.2.,2013-01-24 04:36:00,
2013-01-23 23:41:00,27.8,19.3,30.10,South,171,0.0,0.0,70,0.00,,,0.00,HR-IXPWINDi_r2_v1.2.,2013-01-24 04:41:00,
2013-01-23 23:47:00,27.8,19.3,30.10,South,171,0.0,0.0,70,0.00,,,0.00,HR-IXPWINDi_r2_v1.2.,2013-01-24 04:47:00,
2013-01-23 23:52:00,27.8,19.0,30.09,South,171,0.0,0.0,69,0.00,,,0.00,HR-IXPWINDi_r2_v1.2.,2013-01-24 04:52:00,
2013-01-23 23:57:00,27.8,18.6,30.09,South,171,0.0,0.0,68,0.00,,,0.00,HR-IXPWINDi_r2_v1.2.,2013-01-24 04:57:00,